Theta_e
297 297 297 298 298 298 298 299 300 300 299 299 299 299 299 299 300 300 300 300 301 300 299 299 299 299 299 299 300 299 299 298 298 298 298 298 298 299 298 298 297 297 297 297 296 297 297 297 297 298 298 297 300 298 297 298 298 297 298 300 302 303
297 297 298 298 298 298 298 298 299 299 299 299 298 298 298 298 298 298 298 298 298 298 298 298 298 298 298 297 297 297 297 297 296 295 295 297 297 296 296 294 294 294 294 294 295 295 295 296 296 296 296 297 297 297 298 297 295 295 297 298 299 301
296 297 297 297 297 297 297 298 298 298 298 298 297 297 297 297 297 297 297 297 297 296 296 296 297 297 297 296 296 296 295 295 295 295 294 293 294 292 292 292 292 292 292 293 294 293 294 294 295 294 293 293 293 294 293 293 293 293 295 295 296 295
296 296 296 295 296 296 297 298 297 297 297 297 296 296 296 296 296 296 297 296 297 296 296 296 295 296 295 295 294 294 293 292 292 291 290 291 291 291 291 291 291 291 292 292 292 292 292 291 294 292 292 293 292 292 295 295 292 292 293 291 293 294
295 295 296 296 296 296 296 295 296 296 295 295 294 295 295 295 296 296 296 296 296 295 294 294 293 293 292 292 292 291 291 290 290 290 290 291 291 292 292 291 292 291 291 290 291 291 290 292 291 292 291 292 291 291 292 293 291 291 292 292 292 293
295 296 296 297 296 296 296 295 295 295 294 294 294 293 293 294 294 295 295 294 294 293 293 293 292 291 291 290 289 289 289 289 290 290 291 291 290 292 291 290 290 289 290 289 290 289 289 290 290 290 289 291 290 291 292 292 291 291 291 291 292 292
295 296 296 296 295 295 295 295 294 294 293 293 293 293 292 293 293 294 293 293 292 292 292 291 290 290 290 290 290 290 290 290 290 290 289 289 289 289 288 289 287 288 288 291 289 290 289 289 289 290 290 291 289 289 290 290 290 291 291 291 291 291
296 296 295 295 294 294 294 293 293 292 292 292 291 292 292 292 292 292 293 292 291 290 290 290 290 290 290 289 289 289 288 289 287 286 287 287 287 286 286 286 287 287 287 286 288 287 289 289 288 288 289 290 290 289 289 289 290 290 290 291 291 291
296 296 295 294 293 292 292 292 293 292 292 292 291 290 291 291 291 291 291 290 290 290 289 289 289 289 288 288 288 288 287 287 286 286 287 286 286 286 285 285 285 285 286 287 286 288 289 289 289 289 290 290 288 287 287 288 288 288 289 289 290 290
295 294 293 292 292 292 292 291 292 292 291 291 290 289 290 292 290 290 290 289 289 289 289 288 288 287 288 287 287 287 286 286 285 285 284 285 284 285 285 285 286 286 285 287 287 289 289 288 288 288 288 288 288 287 286 286 287 287 287 288 288 289
294 293 292 292 291 291 291 291 291 291 290 290 289 288 288 288 289 289 289 288 288 287 287 287 288 288 287 287 286 286 285 285 284 284 284 284 284 287 285 285 286 286 286 286 286 286 287 288 289 290 290 289 288 287 287 286 286 286 286 287 287 287
294 293 293 292 292 292 292 292 291 290 290 289 288 288 287 288 288 288 288 287 287 286 286 287 287 287 287 286 285 285 284 284 284 284 284 285 284 284 284 284 284 284 284 285 285 285 287 288 289 289 291 292 290 288 287 286 286 285 285 285 286 286
294 293 293 292 292 292 292 291 291 290 289 288 288 288 286 286 287 286 286 287 286 285 285 285 286 285 285 285 284 283 283 284 284 283 283 283 283 283 283 283 283 283 283 284 284 284 286 287 288 290 292 293 293 290 287 286 285 285 285 285 285 285
294 293 293 292 292 292 291 291 290 289 289 288 287 286 286 286 286 286 285 285 285 285 285 285 284 284 284 283 283 282 282 282 281 281 281 282 281 282 281 282 281 282 282 283 282 282 284 284 287 290 291 292 292 291 288 286 286 285 285 285 285 285
294 294 293 292 292 291 290 290 289 289 288 287 287 286 286 285 285 285 285 285 284 284 284 284 283 283 283 282 282 282 281 280 280 279 280 281 281 281 281 281 281 281 282 282 282 282 283 283 287 289 290 291 291 291 290 286 285 285 285 285 285 285
294 293 292 291 290 290 289 289 289 288 287 287 286 286 285 285 285 284 284 284 283 283 283 283 283 282 282 282 281 281 280 279 280 279 279 280 279 280 280 279 280 281 281 282 282 282 282 282 286 289 290 290 290 291 290 286 285 285 284 284 284 285
292 291 290 290 289 288 288 288 287 287 286 286 286 285 286 285 284 284 283 283 283 283 283 282 282 281 281 280 279 279 279 279 279 279 280 279 279 280 281 281 281 281 281 281 281 281 282 283 287 289 289 289 290 290 290 285 285 284 284 284 284 284
292 291 290 288 288 288 287 287 287 287 286 285 285 285 284 285 284 283 283 282 282 282 282 281 281 280 280 279 278 278 278 278 278 279 279 279 279 278 278 279 277 280 280 281 281 281 281 282 287 288 288 289 289 290 286 284 283 283 283 284 284 284
291 290 288 288 288 287 287 287 286 286 285 285 284 284 283 283 282 282 282 281 281 281 281 280 279 279 278 277 277 276 277 277 277 278 278 278 278 279 279 279 279 280 280 281 281 280 281 281 284 287 288 288 289 289 284 283 283 283 283 283 284 284
289 288 288 287 286 286 286 286 286 285 284 284 283 283 282 282 281 281 280 280 280 280 279 279 278 276 276 275 275 275 275 276 276 276 278 277 278 277 278 279 280 280 279 280 280 280 280 281 283 286 287 288 288 288 284 283 283 283 283 283 284 284
288 287 286 286 285 285 285 285 284 284 283 283 282 282 281 280 280 279 279 279 279 278 278 278 277 275 274 274 274 274 274 274 276 276 276 276 275 277 277 279 279 279 279 277 279 281 281 281 282 285 287 287 288 287 284 283 283 282 283 283 283 284
286 285 284 284 284 284 284 284 284 283 283 282 281 281 279 279 278 278 278 278 278 277 277 275 275 274 273 272 272 273 274 274 275 275 275 276 276 277 277 277 278 277 278 279 278 279 280 280 281 283 286 287 288 288 286 284 283 282 282 283 283 283
285 284 283 283 283 283 283 283 283 282 281 281 280 278 278 278 278 278 278 278 278 277 275 275 274 272 272 272 272 273 273 274 274 275 274 275 276 276 276 276 277 277 278 279 279 279 279 280 280 282 285 286 287 287 287 284 283 283 283 283 283 283
282 281 281 280 281 281 282 282 282 281 280 279 277 276 277 278 278 278 278 278 276 276 275 274 273 272 271 271 272 272 273 272 273 273 274 274 274 274 275 275 276 277 277 278 279 279 279 280 281 281 283 285 286 286 287 284 283 284 284 283 283 283
281 280 278 278 278 279 280 281 280 280 278 276 275 277 277 277 277 277 277 276 275 273 272 272 271 271 271 271 272 271 271 272 272 272 273 273 273 274 274 274 275 276 276 277 278 278 279 279 280 282 282 283 285 285 285 286 285 286 285 283 283 283
279 277 276 276 276 276 277 280 279 278 276 275 276 276 277 276 276 275 273 272 272 271 270 270 270 270 270 271 271 270 270 271 271 271 273 273 273 273 274 274 275 275 275 275 276 277 278 278 279 281 282 282 283 284 285 285 286 286 284 284 284 284
277 276 275 275 274 274 275 277 278 276 274 275 275 275 275 274 273 271 270 269 269 269 268 268 269 269 269 269 270 270 271 270 270 271 271 271 272 272 273 273 274 274 274 275 275 275 276 277 278 278 279 281 282 283 284 284 285 285 285 282 282 283
276 275 274 273 273 273 273 273 275 273 273 274 275 275 274 272 270 270 268 268 268 268 268 268 269 269 269 268 269 268 269 270 270 270 271 270 271 270 271 272 273 273 273 273 274 274 275 276 276 277 277 279 280 280 282 282 283 282 283 283 283 284
275 274 273 271 271 271 271 271 271 272 273 274 274 272 271 270 270 270 268 267 268 267 268 269 269 269 269 267 267 268 269 269 269 269 270 269 270 270 271 271 272 272 272 272 273 274 274 275 275 276 276 277 277 278 279 280 281 282 283 282 283 283
274 273 272 270 270 270 270 271 272 273 273 271 271 269 268 268 268 267 266 266 266 267 267 268 271 269 267 267 267 268 268 267 268 268 269 269 269 270 270 270 271 271 271 272 273 273 273 274 274 275 275 276 277 278 279 280 281 281 281 281 282 282
273 272 270 269 269 269 269 270 271 270 270 269 268 268 267 267 268 267 265 266 267 266 269 268 265 266 266 266 267 266 267 268 268 268 269 268 268 268 270 271 272 273 272 273 273 273 272 273 274 275 279 279 281 280 279 279 280 280 281 282 283 282
272 270 269 268 268 268 269 270 269 268 268 267 267 268 267 267 266 265 265 266 266 265 266 265 264 264 265 265 266 266 266 272 273 273 271 270 274 277 277 277 274 274 275 274 274 274 273 273 275 279 281 281 281 281 281 281 282 282 282 282 283 282
270 268 267 267 267 268 269 268 267 266 265 266 266 266 266 265 266 266 265 265 264 266 264 263 263 265 263 265 265 265 266 266 267 271 274 275 275 275 275 276 277 277 278 276 274 275 279 279 279 279 279 279 280 280 281 281 282 282 282 282 280 279
268 267 266 266 267 268 268 266 265 264 263 263 264 264 265 265 265 264 263 263 262 264 264 264 263 263 263 264 263 264 264 264 264 265 270 273 273 273 274 275 276 276 277 277 276 275 273 276 277 278 278 278 279 279 280 280 280 281 281 281 282 278
267 267 266 265 266 267 266 264 263 263 262 262 263 264 263 262 261 261 260 260 262 263 264 264 263 263 262 262 263 263 263 263 263 263 263 266 270 271 272 273 274 274 274 275 275 275 275 275 276 277 277 278 278 278 278 279 279 280 281 281 278 278
266 265 265 265 265 264 263 262 261 262 261 261 262 261 259 258 259 259 259 260 261 261 261 261 261 261 261 261 261 261 262 261 262 262 262 263 264 265 268 271 271 272 273 273 274 274 274 275 275 276 276 276 277 277 277 278 277 279 280 279 276 277
265 264 264 265 263 262 261 260 260 260 260 259 258 257 257 257 258 258 261 263 263 260 260 261 261 260 260 261 260 260 260 260 262 263 263 263 263 263 263 264 265 269 271 270 271 272 274 274 274 275 275 275 276 277 277 277 274 273 274 275 277 277
264 264 264 263 261 260 260 259 260 260 259 258 257 257 258 258 259 260 262 262 261 260 260 260 259 259 259 259 258 260 260 261 261 262 262 263 263 263 263 263 264 265 268 270 271 272 273 273 274 274 274 275 275 276 276 271 271 271 273 274 276 277
Wind_Speed
5 5 5 5 5 5 5 5 6 6 6 6 6 7 6 6 6 5 6 5 5 5 6 6 6 5 5 5 6 6 6 6 6 5 5 4 4 6 5 5 5 6 6 5 5 4 4 4 4 4 4 4 5 5 5 4 4 5 5 5 5 6
4 4 5 5 5 5 5 5 5 6 5 6 6 7 7 7 7 6 7 6 6 6 6 6 5 5 6 5 6 6 6 5 5 4 5 5 5 5 5 5 5 5 5 5 5 5 5 5 5 5 5 6 5 5 5 6 4 5 5 6 5 5
5 5 5 5 5 5 5 5 5 5 6 7 6 8 7 8 6 6 6 6 7 8 8 7 6 7 6 7 6 6 5 5 5 5 4 5 5 4 4 5 4 4 4 5 5 5 5 5 5 5 4 4 4 5 4 4 5 5 5 5 6 5
5 4 4 4 5 5 5 5 6 6 6 6 6 7 7 7 6 6 6 6 7 8 7 7 5 6 6 6 5 6 5 5 5 4 4 4 3 4 4 5 4 5 5 5 5 5 5 5 5 5 4 5 5 6 4 5 5 5 6 5 6 6
5 5 5 5 5 5 5 5 6 6 6 6 6 8 6 6 6 6 6 7 7 7 6 6 6 6 6 7 6 5 4 4 3 3 4 5 5 5 5 5 5 5 5 5 5 5 5 5 5 5 5 5 5 5 6 5 5 5 6 6 7 7
5 5 5 5 5 5 5 5 5 6 6 6 6 8 6 6 5 6 6 7 8 7 7 7 6 7 6 5 4 5 4 4 5 5 6 6 6 7 6 5 5 5 5 5 5 5 5 5 5 5 5 5 5 5 6 6 6 6 6 7 7 7
5 5 5 5 5 5 5 6 5 6 6 5 6 6 5 5 5 6 6 7 8 7 7 6 5 5 6 6 6 6 6 6 6 6 5 6 5 5 4 4 4 4 4 6 5 5 5 5 5 5 6 6 5 5 5 6 6 6 7 7 7 7
5 5 5 5 5 5 5 6 6 6 6 6 5 5 5 5 5 6 7 6 7 6 6 5 5 6 6 6 5 5 5 5 4 4 4 3 4 4 4 4 4 4 4 4 5 5 5 5 5 5 5 6 5 5 5 5 6 7 7 8 8 8
6 6 5 5 5 5 5 6 6 6 6 6 5 5 5 5 5 6 7 6 6 6 5 5 6 6 5 4 3 3 3 3 3 3 3 3 3 3 3 4 3 4 4 4 4 5 5 5 5 6 6 6 5 4 5 7 7 7 8 7 8 8
6 6 6 6 6 6 5 5 6 6 6 6 5 5 5 5 6 6 6 5 6 6 5 5 4 4 3 3 3 3 3 3 3 3 4 3 3 3 4 4 4 4 4 5 5 5 5 5 6 6 5 5 5 5 5 5 7 8 8 8 9 9
8 7 7 7 6 7 6 6 6 6 5 5 5 5 5 4 6 6 6 5 6 5 4 4 2 2 2 2 2 2 2 3 3 3 4 3 4 4 4 4 4 5 6 5 5 5 5 5 6 5 5 6 7 5 6 7 7 8 9 10 10 9
8 8 8 8 8 8 7 7 6 5 6 6 5 5 4 5 5 6 6 5 5 4 4 3 2 2 2 2 2 1 2 2 3 4 4 4 4 4 4 4 4 4 5 5 6 5 5 6 5 7 12 10 8 7 6 6 7 7 8 10 11 11
8 9 9 9 9 8 8 7 7 6 6 5 5 5 4 5 6 5 5 5 4 4 3 3 2 2 2 2 1 2 2 4 4 4 4 4 4 4 4 4 4 4 4 5 5 5 5 6 6 11 13 13 14 9 7 8 9 8 8 9 10 12
12 12 11 9 9 8 8 8 7 7 7 6 6 5 4 5 5 5 5 4 4 4 3 2 2 2 2 2 1 3 3 3 4 4 4 4 4 4 4 4 4 5 5 5 4 4 6 6 9 13 13 14 14 13 9 8 8 9 9 9 10 11
13 12 10 9 9 9 8 8 9 8 7 7 5 5 5 5 5 5 5 4 4 4 3 2 2 1 1 1 1 3 3 3 4 4 4 5 4 4 4 4 4 5 5 4 5 5 5 6 9 12 14 14 14 15 13 8 8 9 10 10 11 11
9 9 9 9 8 8 7 7 8 7 7 7 5 5 5 5 5 4 4 4 4 2 2 1 1 0 0 1 2 3 3 4 4 4 4 4 4 4 4 4 5 5 5 5 6 7 6 6 9 13 14 14 15 16 13 8 9 9 10 11 11 11
10 10 10 9 10 8 9 8 7 8 7 6 6 5 6 5 5 4 4 4 3 1 0 0 0 1 1 2 3 3 4 3 4 4 4 3 4 4 5 6 6 6 5 6 6 6 7 6 10 13 15 14 15 16 14 8 8 9 10 11 11 11
16 15 12 9 9 8 7 9 8 8 7 5 5 5 5 6 5 4 3 3 2 0 0 0 1 1 2 3 3 3 4 4 4 4 4 3 3 3 3 4 3 6 7 6 6 8 10 8 9 12 15 16 14 15 10 8 8 10 11 12 12 11
11 11 11 10 9 10 9 8 8 8 8 7 5 6 5 5 5 4 2 2 1 0 0 1 2 2 3 3 4 4 4 4 5 4 3 4 4 5 6 6 5 5 7 8 7 7 9 11 9 9 14 15 15 10 8 9 9 9 11 12 13 11
10 9 12 12 9 8 8 8 9 9 8 7 6 6 5 5 4 3 2 2 1 1 2 2 3 3 4 3 3 4 4 4 3 3 3 5 7 7 7 7 7 6 5 7 9 7 8 12 14 13 11 14 16 13 9 9 9 11 12 12 12 11
13 12 10 11 12 8 8 8 9 9 8 6 6 6 6 5 4 3 1 1 2 2 3 3 3 3 3 2 3 3 3 4 4 4 4 4 4 5 5 6 7 8 7 5 8 11 10 11 14 14 10 14 16 13 8 9 9 11 12 12 13 12
14 11 11 12 11 9 9 8 8 8 8 6 6 7 6 4 3 2 2 2 3 3 2 2 2 2 1 2 3 3 3 3 4 5 6 5 4 6 6 5 7 9 10 7 6 8 8 10 12 13 13 15 17 18 11 9 10 11 13 13 13 14
12 12 11 9 9 9 7 8 9 8 7 7 7 6 5 3 3 3 2 2 2 1 1 2 1 1 2 2 3 3 3 4 5 6 6 7 7 6 6 7 8 8 10 9 7 7 9 8 10 13 16 16 18 18 15 9 10 11 11 12 14 13
10 10 8 6 8 7 7 8 10 8 8 8 7 5 4 4 3 3 2 1 1 1 0 0 1 1 1 3 2 4 5 5 5 4 5 5 5 7 8 7 7 8 10 10 9 7 9 10 13 12 13 16 20 19 19 12 10 12 12 13 13 14
11 10 9 6 6 5 6 9 10 8 7 8 6 5 4 4 3 2 2 2 2 0 0 0 0 1 1 2 4 5 6 5 5 5 5 5 5 6 7 7 7 8 10 11 11 9 9 9 11 15 13 18 21 21 21 22 16 19 14 12 14 14
10 10 7 6 6 5 4 9 10 9 9 7 5 5 4 3 2 2 2 2 1 1 0 0 1 1 2 4 5 5 5 5 5 4 5 5 6 7 8 8 7 8 10 12 13 13 12 10 9 12 16 15 19 21 23 22 23 23 14 13 13 13
13 11 9 7 7 5 5 5 11 11 9 6 6 4 4 3 3 3 2 2 1 0 0 1 2 4 5 5 5 5 6 5 5 6 4 4 6 6 6 8 6 7 9 11 12 13 14 13 12 11 13 17 18 19 21 22 24 25 27 18 14 15
10 11 11 8 7 7 5 5 7 11 7 7 5 5 4 3 3 3 3 1 1 0 1 4 4 5 6 5 5 4 4 5 6 5 6 6 6 5 6 7 8 8 9 10 11 12 13 15 14 13 12 12 13 14 18 22 27 28 27 25 21 27
11 10 11 10 5 6 6 6 6 6 6 6 5 3 3 3 3 3 2 1 2 3 4 6 6 6 6 5 4 4 4 5 5 4 4 5 6 6 6 6 7 8 9 11 11 12 13 15 14 13 13 12 12 12 13 14 15 20 22 16 12 13
10 11 10 9 7 6 6 6 6 5 5 5 4 3 3 3 3 3 3 3 3 4 4 5 6 6 5 5 5 6 6 4 4 5 5 5 6 7 7 8 7 7 9 11 11 12 14 15 14 13 13 14 14 15 14 13 14 13 11 13 13 15
10 9 10 8 7 7 7 6 6 6 5 3 3 3 3 3 3 3 4 3 4 4 4 4 4 4 4 4 4 4 5 6 5 6 5 3 4 3 5 8 8 8 7 8 10 11 13 15 16 15 17 22 26 23 19 16 15 15 15 19 29 24
10 11 10 8 7 7 7 7 6 4 3 3 3 3 3 3 4 4 4 4 4 3 3 3 3 3 3 4 5 6 4 5 7 7 7 5 4 10 13 11 9 10 10 11 10 8 10 12 16 28 35 33 33 34 34 31 32 30 25 28 35 26
8 9 9 8 8 8 7 7 6 5 3 3 2 3 3 4 4 4 3 3 2 3 3 3 3 5 3 4 4 5 8 11 4 6 11 11 9 10 11 14 17 17 16 12 13 15 24 26 28 29 30 32 32 33 33 33 33 33 32 32 25 18
10 10 10 8 8 8 8 7 6 4 3 3 3 3 3 3 4 4 2 4 3 3 2 2 2 3 3 4 4 6 7 7 12 12 3 5 8 9 11 12 14 14 15 17 17 17 15 22 28 31 30 30 30 30 31 31 33 34 34 32 31 19
9 8 8 9 9 8 8 7 5 4 4 3 3 3 4 3 3 4 4 3 2 2 2 2 1 2 3 4 5 5 5 6 6 10 16 8 4 6 12 10 8 12 15 18 19 21 21 24 27 32 31 31 31 31 29 31 33 32 33 32 18 12
8 8 9 9 8 8 8 7 6 5 4 4 4 4 3 3 5 4 3 1 1 1 1 1 1 2 2 2 3 3 4 3 5 7 6 11 18 15 2 4 4 14 20 22 24 24 23 23 25 26 29 30 31 31 31 29 24 28 28 22 14 12
9 8 8 9 8 8 7 7 5 5 4 4 4 3 3 4 5 3 2 2 1 1 0 1 1 1 2 2 2 3 3 4 5 4 6 9 10 10 14 16 12 9 13 17 19 23 26 25 26 26 26 28 28 29 29 29 17 15 14 12 10 11
8 8 8 7 7 7 7 6 5 5 5 4 4 4 4 4 3 3 2 0 1 0 0 0 1 2 2 2 2 2 3 5 4 5 6 6 5 8 12 13 12 12 13 20 20 22 25 29 29 27 27 26 26 26 26 16 14 13 12 12 11 11
Wind_Direction
86 85 89 78 77 76 80 76 73 71 72 78 86 91 91 93 85 81 76 75 82 82 79 80 72 67 64 56 61 58 58 43 35 34 30 20 18 26 18 13 15 10 4 4 350 345 341 343 342 342 343 344 335 329 326 325 341 334 320 318 322 313
93 93 89 84 81 83 78 79 76 77 82 85 82 78 76 75 74 77 76 66 72 69 66 59 65 67 68 65 68 63 57 47 42 27 18 16 27 22 20 21 16 7 2 353 352 347 349 349 344 348 346 347 337 330 333 324 345 333 316 308 306 305
97 92 95 95 89 83 80 80 83 82 76 76 77 85 80 76 72 74 72 74 69 70 62 55 48 50 52 56 56 65 60 56 44 28 14 24 23 19 20 22 7 4 359 354 353 352 345 347 340 342 345 342 329 324 321 319 322 313 301 301 300 298
103 105 104 98 93 87 84 79 79 74 74 75 77 77 71 79 71 74 78 74 75 72 66 57 52 54 51 51 45 50 51 53 50 31 27 39 3 29 23 15 6 5 359 356 348 346 341 335 334 328 338 332 326 318 315 312 309 304 295 298 296 296
137 135 124 110 103 100 90 82 81 82 79 78 75 80 72 73 78 76 78 78 75 71 67 66 57 58 59 53 37 39 36 44 53 44 54 32 20 15 20 6 8 358 354 349 341 341 339 337 332 332 339 330 323 315 313 308 306 300 297 298 289 290
127 118 115 110 103 99 96 91 85 79 77 79 78 74 70 66 68 77 75 73 73 70 68 63 59 59 61 65 49 44 24 20 28 28 39 28 20 15 360 5 359 1 350 347 339 338 337 336 332 329 330 319 317 315 309 309 306 298 292 287 289 289
139 140 128 118 109 103 97 94 90 84 80 77 80 76 72 69 67 77 80 79 77 67 66 64 63 68 59 54 41 34 23 16 14 16 30 27 12 355 3 348 355 357 352 342 332 326 329 322 322 325 321 315 308 303 302 305 305 301 296 290 287 288
145 125 123 116 113 110 104 100 97 90 82 76 78 84 73 68 71 76 81 79 81 76 70 64 58 53 50 42 35 25 17 9 1 3 4 30 356 340 344 343 334 339 328 325 315 314 310 313 315 313 308 306 308 312 316 314 308 301 295 292 287 283
149 144 130 125 116 112 110 111 107 101 97 84 75 75 80 79 82 81 84 83 86 82 69 58 54 52 42 37 26 19 7 345 334 355 351 336 344 331 330 321 327 314 322 310 314 312 309 311 312 311 308 304 304 316 319 311 302 295 294 287 285 282
151 144 137 125 119 108 102 99 105 112 109 105 95 84 81 80 86 88 88 86 80 76 69 59 54 55 47 32 32 25 357 333 335 338 335 353 348 338 334 330 328 318 326 314 313 307 311 309 307 304 299 296 298 308 302 297 297 296 291 288 283 281
161 148 140 137 129 124 121 115 109 104 99 98 99 91 87 94 97 91 89 82 81 79 81 77 49 50 59 45 41 13 334 317 327 337 342 348 342 338 333 328 329 327 323 316 311 308 307 306 299 297 300 301 300 293 292 291 287 286 290 289 285 278
155 150 145 145 146 144 139 132 127 124 120 115 107 98 82 90 92 97 91 88 90 85 83 83 54 51 62 53 36 334 316 322 339 346 350 350 342 331 325 326 321 317 305 310 311 311 307 299 291 288 288 290 291 294 287 287 285 286 289 293 294 291
153 151 156 160 154 149 140 134 131 125 118 117 114 107 103 96 98 98 106 106 103 94 78 74 46 55 67 59 25 326 333 340 342 343 343 346 333 322 316 319 317 310 304 301 298 298 293 289 290 292 296 298 300 300 297 295 294 289 286 286 289 292
165 166 165 156 149 144 141 139 137 130 128 123 117 117 104 101 110 112 107 107 96 83 79 70 52 47 36 34 331 323 332 340 346 343 341 337 330 317 321 320 300 297 296 290 285 286 288 288 286 293 298 301 302 303 298 294 292 293 290 288 286 287
171 164 154 149 149 144 147 142 135 138 136 126 134 120 111 115 117 115 104 97 91 84 72 75 61 48 26 320 323 327 350 346 347 347 345 328 304 310 318 300 300 294 292 293 298 296 291 289 290 294 297 299 300 301 299 289 285 288 289 288 285 285
156 154 153 148 142 138 136 133 130 128 126 127 126 125 132 119 109 104 108 96 80 80 88 73 100 85 301 342 343 357 352 352 339 326 308 297 303 301 295 292 293 298 306 306 303 298 295 289 291 295 300 303 303 302 301 287 288 286 285 285 285 284
148 142 144 146 142 135 123 118 124 123 120 125 125 130 121 113 104 95 93 104 105 78 97 133 168 53 4 358 357 358 348 331 324 319 304 291 295 306 312 320 326 320 314 309 304 300 296 288 290 300 302 303 301 299 304 292 288 287 287 285 283 282
162 158 149 136 132 135 134 137 137 128 132 129 128 120 114 113 108 93 80 99 105 127 191 151 76 33 24 1 359 354 342 336 323 314 300 297 293 289 304 308 305 308 310 303 305 308 303 298 295 300 303 304 300 301 302 297 291 289 289 289 287 283
139 139 133 136 139 139 141 140 133 130 127 125 124 117 112 103 99 101 95 111 90 40 96 66 55 16 20 8 1 344 337 330 318 304 291 313 332 340 337 326 313 305 307 308 307 303 299 301 293 291 299 301 303 305 300 298 296 290 290 289 291 291
121 132 138 136 133 138 140 139 134 131 126 126 123 115 108 101 96 86 81 95 87 69 33 49 43 32 16 1 340 319 307 294 278 293 333 353 339 335 327 315 314 309 302 302 301 297 298 299 301 301 297 306 308 310 304 298 297 294 293 294 292 293
137 137 132 132 134 145 141 137 130 125 123 127 126 116 110 104 93 81 79 62 60 56 31 43 45 32 12 332 303 300 299 306 317 322 338 340 324 308 305 312 313 310 305 288 289 298 298 296 299 302 302 310 312 313 305 301 296 296 296 298 297 296
127 133 142 144 145 142 138 133 124 123 125 126 118 113 111 104 95 78 60 51 54 59 41 34 46 357 344 296 295 289 297 304 331 342 342 334 328 318 320 315 311 308 305 305 290 293 291 296 299 302 304 314 314 315 311 303 301 298 299 297 295 297
139 144 144 140 137 135 134 128 123 125 124 120 113 110 100 85 73 59 54 48 56 56 38 29 31 325 289 279 281 288 319 345 349 342 343 333 328 322 318 319 314 308 304 305 301 297 297 292 299 303 309 313 315 313 314 303 297 294 292 292 291 288
122 117 108 109 118 123 128 127 123 125 123 116 110 103 82 73 77 63 70 125 150 138 126 130 307 269 257 277 297 352 2 354 347 331 323 315 315 318 316 317 313 311 309 310 309 306 304 305 303 304 309 314 315 314 312 307 294 295 296 294 287 289
128 122 118 105 97 101 119 126 125 123 118 116 114 95 88 86 103 152 174 173 159 157 127 159 260 270 266 334 8 15 356 340 342 332 323 320 324 320 316 317 318 318 316 315 313 312 310 309 309 309 311 316 315 313 312 308 304 301 300 293 290 290
121 116 103 96 88 83 102 129 127 125 123 124 111 107 123 141 182 172 188 167 150 153 198 258 277 302 0 17 10 9 347 339 334 330 322 330 327 323 322 324 328 324 322 320 315 316 315 313 309 309 313 314 313 314 312 311 310 311 306 303 298 302
132 122 106 94 88 78 79 105 127 127 124 124 122 143 151 169 184 174 163 150 155 164 223 302 358 20 24 12 7 359 345 335 334 331 329 332 326 323 318 316 325 324 319 316 313 314 313 314 315 311 313 312 311 312 312 313 314 314 313 307 298 292
121 122 117 96 85 83 76 76 111 123 127 125 143 152 158 181 178 160 147 141 158 262 20 30 25 27 17 6 359 348 317 309 312 317 319 327 315 314 316 317 325 323 319 310 311 311 310 310 311 313 314 315 314 314 312 313 312 308 304 296 288 290
134 133 126 114 99 97 91 90 87 96 119 141 141 135 169 183 154 138 135 126 63 28 33 35 20 12 8 0 345 324 300 299 300 302 305 307 313 316 317 317 321 321 316 311 310 310 309 309 311 314 316 317 318 317 312 307 302 301 300 296 285 285
140 136 132 125 124 116 110 106 112 119 117 116 124 152 158 147 142 132 92 63 56 35 42 40 23 13 351 334 325 325 320 304 295 297 298 312 316 319 320 322 320 317 312 308 310 312 311 307 310 312 318 319 318 314 312 307 305 304 301 301 301 303
138 138 130 128 129 128 125 129 115 111 120 130 132 159 155 141 113 98 81 78 65 48 51 38 20 352 331 320 317 294 285 299 298 295 285 245 229 243 290 308 302 298 294 293 299 308 308 308 309 309 312 310 311 312 312 311 310 310 309 308 310 308
140 138 133 132 136 139 141 129 124 120 122 132 153 156 143 123 105 95 89 80 69 67 42 24 1 346 338 323 315 310 286 266 298 295 291 296 284 299 300 295 295 301 308 305 295 289 293 297 298 305 310 313 315 315 314 312 310 308 307 309 310 309
136 132 134 143 147 150 144 131 134 130 132 126 127 124 119 115 116 108 93 93 69 42 31 15 352 329 313 314 319 324 333 328 331 312 291 289 303 314 311 306 302 303 303 304 307 308 306 305 306 309 311 313 313 313 312 312 312 313 313 314 313 306
152 153 150 149 152 149 137 135 133 133 128 116 110 119 123 124 132 139 128 77 45 27 22 359 323 308 335 333 345 355 346 347 327 328 297 258 312 314 310 306 309 316 323 324 320 317 311 311 312 313 313 313 313 314 315 315 315 314 313 312 311 302
154 145 148 151 154 145 138 137 138 135 131 125 117 109 108 115 130 102 71 65 47 46 11 319 316 350 356 354 352 354 354 341 344 332 327 315 221 295 316 329 341 338 330 325 321 316 311 310 313 315 317 318 318 318 318 315 313 312 312 314 312 303
147 150 152 154 149 138 138 140 140 138 136 118 104 102 125 114 90 90 105 96 82 69 285 316 1 6 349 347 349 339 340 339 330 324 318 322 329 339 41 130 358 337 331 327 323 318 315 314 315 317 317 318 318 318 316 316 316 314 313 315 311 306
148 149 152 147 139 140 143 143 142 138 123 111 117 124 115 99 98 100 102 148 188 165 197 322 350 347 354 348 347 330 333 322 321 322 324 328 328 324 322 325 326 325 326 323 321 319 319 320 320 319 317 317 317 318 319 321 316 314 314 311 303 301
145 147 148 141 140 143 144 148 146 132 127 127 132 122 106 111 113 117 119 129 136 168 191 17 25 0 346 315 294 302 308 313 315 317 315 314 307 310 315 312 313 313 317 319 320 319 321 322 323 321 321 321 321 321 326 321 313 308 305 307 303 305